Regional Weather Roundup
Issued by NWS Nashville, TN

Home | Current Version | Previous Version | Text Only | Print | Product List | Glossary On
Versions: 1 2 3 4 5 6 7 8 9 10 11 12 13 14 15 16 17 18 19 20 21 22 23 24 25 26 27 28 29 30 31 32 33 34 35 36 37 38 39 40 41 42 43 44 45 46 47 48 49 50
000
ASUS44 KOHX 211015
RWROHX
MIDDLE TENNESSEE HOURLY WEATHER ROUNDUP
NATIONAL WEATHER SERVICE NASHVILLE TN
500 AM CDT THU AUG 21 2014

NOTE: "FAIR" INDICATES FEW OR NO CLOUDS BELOW 12,000 FEET WITH
NO SIGNIFICANT WEATHER AND/OR OBSTRUCTIONS TO VISIBILITY.

* THESE REPORTS ARE NOT UNDER NWS QUALITY CONTROL AND MAY NOT
  REPORT WEATHER SUCH AS PRECIPITATION AND FOG.


TNZ005>011-023>034-057-059-062>066-078-080-211100
...NORTHERN MIDDLE TENNESSEE...

CITY           SKY/WX    TMP DP  RH WIND       PRES   REMARKS
CLARKSVILLE    MOCLDY    69  68  96 CALM      30.06R
CROSSVILLE     PTCLDY    67  62  84 SW3       30.15S
GALLATIN         N/A     67  67 100 CALM      30.10R
NASHVILLE      MOCLDY    70  69  97 CALM      30.09R
PORTLAND       CLEAR     68  66  94 CALM      30.08R
SMYRNA         CLEAR     70  69  96 CALM      30.10R
SPARTA         CLEAR     64  64 100 CALM      30.10S
$$
TNZ056-058-060-061-075>077-079-093>097-211100
...SOUTHERN MIDDLE TENNESSEE...

CITY           SKY/WX    TMP DP  RH WIND       PRES   REMARKS
COLUMBIA       CLEAR     70  70 100 CALM      30.08R
FAYETTEVILLE   CLEAR     70  66  88 S6        30.11S
LEWISBURG      CLEAR     68  66  93 CALM      30.09R
MCMINNVILLE    CLEAR     66  66 100 CALM      30.12R
MURFREESBORO   CLEAR     69  68  97 CALM      30.09R
SHELBYVILLE    CLEAR     70  68  94 SE3       30.11R
TULLAHOMA      CLEAR     66  64  94 CALM      30.13R
WINCHESTER     CLEAR     68  66  94 CALM      30.12R
$$


...KEY TO REMARKS...
VSB - VISIBILITY IN MILES
WCI - WIND CHILL INDEX
HX  - HEAT INDEX



USA.gov is the U.S. government's official web portal to all federal, state and local government web resources and services.